Location: LC-39B
(28.6273°N, 80.6211°W)
Time: 11:17:43
(UTC+00:00)

ISS - Visible Passes

Search period start: 24 October 2014 00:00
Search period end: 03 November 2014 00:00
Orbit: 413 x 416 km, 51.6° (Epoch: 24 October)

Date Brightness Start Highest point End Pass type
(mag) Time Alt. Az. Time Alt. Az. Time Alt. Az.
24 Oct -0.8 23:43:54 10° NNE 23:44:04 10° NNE 23:44:04 10° NNE visible
26 Oct -1.0 00:29:08 10° NW 00:30:14 19° NNW 00:30:14 19° NNW visible
26 Oct -2.2 23:40:13 10° NNW 23:43:08 27° NE 23:43:41 26° ENE visible
28 Oct -1.7 00:27:26 10° WNW 00:30:16 34° WSW 00:30:16 34° WSW visible
28 Oct -3.2 23:37:55 10° NW 23:41:15 79° SW 23:44:15 12° SE visible
30 Oct -0.5 23:36:29 10° WNW 23:38:59 20° SW 23:41:30 10° S visible
